USA 40 R/B DEB, 23159

Orbit data source: Space-Track

USA 40 R/B DEB, 23159 is space debris in LEO originally from a launch on Tue, 08 Aug 1989 UTC launched from the Air Force Eastern Test Range (AFETR). Debris objects in space refer to the collection of defunct objects orbiting the Earth. Examples of debris include non-operational satellites, rocket bodies, and fragments generated from explosions, collisions, or faulty payload assembly.

Loading next visibility...
Identifier
23159, 1989-061N
Orbit
LEO
Country
Flag of USUS
Related business
Manufacturer
Unknown
Mission
Spacecraft
Bus & Motor
Unknown
Mass
Unknown
Launch date (UTC)
1989-08-08 (37 years ago)
Launch vehicle
Unknown
Launch site
Air Force Eastern Test Range (AFETR)
Object type
Payload
Rocket body
Debris
Shape & HBR
Unknown shape, 0.1 m
Radar Cross Section
Small (<0.1 m²)

Expand to show TLE details & history
Last TLE update: 8 hours ago

TLE from 8 hours ago
0 USA 40 R/B DEB
1 23159U 89061N   26094.29530190  .00070528  00000-0  15603-1 0  9992
2 23159  56.9415 154.0224 1596228 335.7027  17.5955 11.86802382250233
Epoch: 2026-04-04T07:05Z
TLE epoch observation values (Epoch: 2026-04-04T07:05:14.084Z)
Latitude
-0.00002°
Longitude
-144.90342°
Altitude
530.632 km
Speed
8.145 km/s
True Right ascension
10h 16m 05s
True Declination
0° 00' 00"
Sunlit
Object was in full shadow at epoch
Visualization orbit readout
Latitude
Unknown
Longitude
Unknown
Altitude
Unknown
Speed
Unknown
Apparent Right ascension
Unknown
Apparent Declination
Unknown
Sunlit
N/A
Visualization observer readout
Local Sidereal Time
20:50:07
Azimuth
Unknown
Elevation
Unknown
Doppler factor
Unknown
Orbital elements
Apogee altitude
3,036.07 km
Perigee altitude
444.327 km
Semi-major axis
8,118.335 km
Eccentricity
0.15962
Inclination
56.9415°
RAAN
154.0224°
Arg. of periapsis
335.7027°
True anomaly
24.39184°
Mean anomaly
17.5955°
Eccentric anomaly
20.85078°
Mean motion
2.96717 °/min
Orbital period
121.33 mins
BSTAR
0.015603
Loading maneuver chart data...
Computing Atmospheric mass density...
Loading historical data...
Loading historical data...
Loading historical data...
Loading historical data...
Loading historical data...
Loading historical data...
Loading historical data...

Documentation

Showing up to 5 results
|